Wind_Speed
15 16 13 10 10 11 11 11 12 10 7 6 6 9 8 5 5 5 2 2 4 1 4 6 8 9 9 10 9 8 8 8 8 8 9 8 9 11 13 13 13 14 15 15 15 17 21 25 28 29 29 30 29 29 31 32 32 32 31 31 32 31 31 31 31 31 31 30 30 32 30 30 32 30 27 27 27 25 27 29 28 27 26 25 27 29 30
15 16 13 11 12 14 14 14 14 11 8 8 7 9 11 10 8 8 10 8 1 3 5 8 8 8 9 8 8 8 8 9 10 10 11 11 11 11 13 15 15 16 17 17 16 16 18 22 27 28 28 29 29 30 32 33 32 32 31 31 32 32 32 32 30 31 32 31 31 34 34 34 36 34 30 28 28 28 29 29 28 27 26 24 25 27 27
12 14 12 12 13 14 14 13 12 9 6 4 3 2 4 6 7 8 12 11 2 3 6 7 7 7 6 6 8 9 8 10 11 11 11 12 13 13 12 15 16 16 17 16 16 16 18 22 27 28 28 29 31 32 32 32 33 32 31 31 32 32 32 31 30 32 36 35 34 35 36 36 36 36 33 29 29 30 30 29 28 27 27 26 25 25 24
8 8 7 7 8 10 12 13 10 6 2 2 4 6 5 3 3 5 7 7 2 4 8 7 5 5 6 7 9 9 9 10 11 12 12 13 14 15 15 14 15 17 18 17 18 19 21 25 28 28 27 28 30 31 32 33 32 32 31 32 33 32 30 29 31 34 35 34 32 33 35 36 35 36 34 30 28 29 29 28 27 27 26 27 27 25 23
6 3 2 4 6 7 9 10 9 7 7 7 6 8 9 9 5 4 4 3 5 8 10 7 4 5 6 7 8 8 10 11 12 13 14 14 14 15 15 14 14 18 18 18 20 21 23 28 32 32 31 31 32 33 33 32 32 31 31 32 32 31 28 28 32 35 33 31 31 32 34 36 35 34 32 29 28 28 27 27 26 26 26 27 26 26 24
5 3 5 5 6 8 3 2 5 7 10 11 10 10 10 9 8 5 4 7 10 10 9 7 6 6 3 5 7 8 10 11 12 13 15 15 15 15 14 15 15 16 16 16 19 23 26 31 32 32 32 31 29 29 29 30 31 30 30 30 29 28 27 28 32 35 32 31 31 31 33 35 34 33 31 29 29 27 26 26 25 26 28 27 26 26 26
5 5 5 6 7 6 4 7 4 5 9 12 13 11 11 13 13 13 11 12 13 13 11 10 9 7 4 2 7 10 11 12 12 13 15 15 15 15 13 14 15 14 15 14 15 20 26 28 27 27 28 27 26 27 28 29 29 28 28 28 27 27 27 28 32 34 33 32 31 31 33 34 33 32 30 29 29 27 26 25 26 27 28 27 26 26 26
4 4 4 6 3 4 8 7 8 5 6 7 10 9 12 15 14 13 12 13 14 14 13 11 10 7 6 1 6 11 14 15 15 14 14 15 15 15 12 12 12 12 15 16 17 20 25 27 27 27 28 28 28 27 28 29 28 27 27 26 26 28 29 29 32 34 33 32 31 31 31 31 30 29 29 29 30 28 26 25 24 25 27 26 26 26 27
4 4 5 4 3 2 6 4 7 5 4 3 4 6 8 11 13 13 12 14 15 15 14 14 13 8 6 2 5 12 17 19 19 17 15 15 15 13 11 10 10 10 12 16 18 20 23 26 27 28 28 29 28 27 28 28 28 28 27 26 27 30 31 31 32 32 32 32 31 30 29 29 29 28 28 29 30 28 27 25 24 24 25 25 26 26 26
5 5 5 4 4 3 2 5 8 6 5 4 2 5 5 9 14 14 13 14 17 16 16 18 16 7 2 1 6 13 19 21 20 18 16 15 14 12 9 5 10 13 14 18 20 21 23 24 24 26 28 29 28 27 28 28 28 28 28 28 28 29 30 30 30 31 32 32 31 30 29 29 29 29 28 28 29 28 27 27 25 25 24 25 25 26 26
4 5 5 4 3 1 4 10 11 9 7 6 5 5 4 8 13 13 14 15 16 16 15 17 14 6 2 4 7 13 20 22 19 17 15 15 15 13 11 4 8 15 18 20 22 23 24 24 24 26 28 28 27 26 26 27 28 27 28 29 29 29 30 30 29 31 33 32 32 31 30 30 30 29 29 29 28 28 27 27 26 24 24 23 24 24 25
6 7 6 3 1 1 8 13 13 10 8 7 8 6 3 8 11 11 13 14 15 15 14 13 11 9 6 6 10 16 21 20 17 14 13 14 15 14 12 10 0 13 20 21 23 24 24 25 26 27 28 28 26 24 25 26 27 27 29 30 29 30 30 28 29 31 32 31 31 30 29 31 30 29 29 28 26 25 25 25 24 23 23 23 22 23 23
7 8 5 3 1 2 10 15 14 13 8 7 7 4 2 8 10 9 10 12 13 14 13 10 8 8 7 9 12 17 20 18 14 14 14 15 17 15 14 14 8 7 16 20 23 25 25 26 27 28 28 26 24 23 24 25 27 29 30 29 28 28 28 27 27 29 29 29 30 30 31 32 30 27 26 25 24 24 24 24 23 23 22 22 22 22 22
6 6 5 3 1 3 12 16 14 10 4 5 4 2 3 6 9 9 9 11 11 13 13 10 8 8 10 12 14 16 16 15 13 15 16 16 18 18 16 16 13 5 6 12 16 20 24 27 27 28 28 25 22 23 24 26 29 29 27 27 27 27 26 25 25 26 27 28 30 30 29 29 27 25 24 24 23 24 24 23 23 22 22 21 21 20 20
4 4 3 2 1 4 13 16 10 5 3 3 3 4 4 5 8 9 9 9 10 11 12 12 11 11 12 14 14 14 15 14 14 16 16 15 16 17 17 16 13 9 6 6 8 13 20 25 26 28 28 24 21 23 24 26 27 25 25 28 28 26 26 26 25 26 27 29 30 29 27 27 26 25 24 23 23 23 23 22 21 21 21 20 20 19 18
1 1 1 2 2 6 10 9 5 5 6 5 4 5 5 6 7 8 8 9 10 11 12 13 13 12 13 14 15 15 16 16 17 17 16 16 16 16 17 17 14 10 8 7 8 8 12 16 20 24 25 23 21 21 23 26 27 25 27 31 30 27 27 26 25 25 27 29 31 29 27 27 26 25 24 23 22 22 23 22 20 20 21 21 20 20 19
3 2 4 4 5 7 8 4 2 5 5 4 6 7 6 6 7 7 8 10 12 12 12 13 12 12 13 14 14 14 14 14 15 16 15 16 17 17 18 19 17 13 10 10 10 9 7 8 12 17 19 20 18 16 20 27 29 28 29 31 30 28 26 25 26 25 24 26 29 28 27 26 26 26 24 23 22 22 22 22 21 20 21 21 21 22 21
4 3 6 7 9 9 6 0 4 4 4 5 7 8 7 7 7 7 7 10 12 13 13 12 11 12 15 15 13 14 14 13 15 16 15 16 18 19 19 20 20 15 13 14 14 13 12 9 9 11 14 17 17 16 20 25 27 27 28 28 27 26 24 24 27 26 24 23 25 26 26 26 27 28 26 23 22 21 21 22 22 21 21 21 21 22 22
5 3 7 11 13 9 4 5 5 7 8 7 6 6 6 8 9 9 9 10 11 12 12 12 11 13 15 14 13 12 12 13 14 15 15 16 17 18 17 19 20 17 14 13 14 15 15 13 11 12 14 16 18 18 21 23 24 25 26 25 25 24 24 26 28 28 25 24 23 23 24 25 25 26 24 22 21 21 21 21 22 22 23 22 21 22 22
5 3 7 12 13 7 2 6 7 8 9 10 8 6 6 8 10 10 9 9 10 10 12 12 13 14 14 13 12 11 10 10 12 12 13 15 17 19 20 21 21 19 16 14 14 15 15 13 12 13 14 15 16 17 19 21 22 22 21 20 20 21 22 23 25 26 26 27 25 21 21 22 22 22 22 22 21 21 22 22 22 22 22 21 20 21 20
4 4 8 13 11 6 4 9 10 9 10 12 12 9 9 10 10 10 10 9 9 10 11 12 12 14 14 13 12 12 10 10 10 11 13 15 18 21 22 21 20 20 18 16 15 15 14 13 12 13 14 13 13 14 16 18 20 20 19 17 16 16 16 15 17 21 22 23 22 19 18 21 22 20 21 23 22 21 22 23 23 22 20 19 18 19 18
5 7 10 11 8 6 8 13 15 14 13 13 12 12 11 11 12 11 11 11 10 10 11 11 11 12 13 14 13 12 9 9 11 13 15 17 19 21 22 21 21 21 20 17 15 14 13 13 13 14 15 14 12 11 11 13 15 17 18 16 15 15 13 10 12 15 14 14 16 18 19 23 23 19 18 19 21 20 20 22 25 25 22 20 19 17 16
7 9 11 10 7 6 10 13 15 15 13 13 13 12 10 11 14 13 11 11 12 11 11 12 11 11 13 14 15 12 10 11 13 15 17 17 17 19 20 20 19 20 20 19 17 15 13 12 13 14 15 14 12 9 8 9 10 14 15 14 12 11 10 8 10 12 11 11 15 18 20 22 22 19 15 14 15 17 18 20 23 24 24 24 22 19 17
9 10 11 11 9 9 11 13 15 14 12 12 13 12 10 11 13 13 11 10 11 12 12 12 12 12 12 13 14 13 12 13 15 17 19 18 17 18 19 18 18 19 19 17 16 14 13 11 12 12 12 12 10 9 9 7 6 10 13 11 9 8 7 7 9 9 9 11 14 16 17 18 18 17 16 13 11 10 11 14 17 20 21 22 21 19 18
9 10 11 12 11 11 10 11 12 12 12 13 12 12 12 12 13 14 13 10 10 13 13 12 13 15 13 12 14 14 13 15 18 19 19 19 19 20 21 21 19 18 17 16 14 13 12 11 10 10 10 9 9 9 9 8 5 6 8 7 7 8 8 7 8 8 8 10 12 13 15 16 16 16 15 14 14 14 12 11 12 13 15 16 16 15 15
11 11 12 12 11 9 9 10 11 12 14 15 13 13 14 15 15 16 15 12 11 14 14 12 12 15 14 12 13 15 15 17 20 19 16 17 20 21 21 22 20 18 16 15 15 13 11 10 9 8 8 8 7 7 7 6 5 5 5 5 7 8 9 9 8 8 8 9 11 12 13 14 16 15 12 13 16 18 17 15 13 12 11 11 12 14 14
12 12 13 12 11 11 12 12 13 14 15 15 13 13 15 16 16 15 14 14 13 14 14 13 12 14 14 13 13 15 17 19 20 16 13 14 18 20 21 22 22 20 16 13 13 12 10 9 9 8 8 7 5 5 4 4 3 4 4 5 6 8 9 9 8 8 8 9 10 11 12 13 13 13 12 13 15 16 15 16 17 18 18 17 15 15 16
12 12 12 10 11 13 14 15 15 15 15 14 14 14 15 16 14 12 12 13 11 10 10 12 12 11 11 10 9 12 14 16 17 16 14 14 16 19 21 23 23 20 15 12 13 13 10 8 8 8 7 7 4 3 3 3 3 4 4 4 6 8 8 8 8 7 7 8 10 11 12 13 13 13 14 14 14 14 16 17 19 21 24 26 25 23 22
12 12 12 10 11 13 14 15 15 15 15 16 16 15 14 14 13 11 10 11 10 7 7 9 10 10 9 8 8 8 10 12 14 16 17 16 16 17 19 21 21 18 14 13 14 15 12 8 7 7 7 7 5 3 3 3 4 4 4 5 7 8 8 7 7 9 10 11 12 13 15 17 17 17 17 16 16 16 17 18 19 21 23 25 26 26 25
13 13 12 12 12 14 14 14 15 15 15 16 15 14 13 13 12 11 10 9 9 8 7 6 7 8 9 8 8 9 10 12 14 17 19 20 19 18 18 18 17 15 14 14 15 15 13 10 7 6 6 6 4 4 3 3 4 5 5 6 8 8 8 8 9 12 16 17 17 17 19 20 21 22 22 20 19 18 18 18 19 20 20 20 20 20 21
14 15 14 13 13 14 14 13 14 15 15 15 15 15 14 13 12 11 10 8 7 8 8 7 7 7 8 9 10 11 12 13 15 16 18 21 23 24 22 18 14 12 12 13 13 13 13 11 9 8 7 5 3 3 3 4 5 6 7 8 8 9 10 12 12 14 18 21 21 21 21 21 20 22 21 19 17 16 16 18 18 18 19 20 19 19 22
15 14 14 13 13 14 14 13 13 15 16 16 16 15 14 13 12 12 11 8 7 8 8 8 8 7 8 9 10 10 11 13 13 14 14 15 20 25 25 22 17 15 13 13 13 13 12 11 10 10 9 6 4 3 2 3 5 7 9 8 8 8 11 13 13 13 16 20 21 20 19 17 16 16 16 16 16 17 19 21 20 19 20 21 19 18 21
14 13 13 14 14 14 15 14 14 15 16 16 15 13 12 11 11 11 10 8 7 7 7 8 9 8 8 9 9 9 10 10 11 11 12 13 16 20 23 23 21 20 18 16 15 15 14 13 12 11 9 7 6 3 1 2 4 8 9 8 6 7 10 12 13 13 14 16 17 17 17 18 17 17 17 17 19 22 24 26 25 24 23 23 21 20 21
13 12 13 14 14 14 15 15 14 14 15 15 14 13 13 13 12 11 10 8 6 7 6 7 8 8 8 8 8 8 8 7 6 8 11 13 15 17 19 20 21 21 21 20 18 17 17 17 15 11 8 6 5 3 1 1 4 8 10 8 7 7 8 10 12 13 14 15 15 16 18 18 18 18 18 18 20 22 25 25 25 25 24 22 22 24 25
13 13 13 14 14 15 15 14 13 14 15 15 15 14 14 15 15 14 13 11 8 7 7 5 6 6 7 7 7 7 7 6 6 9 12 15 15 16 18 18 18 18 20 20 17 16 18 18 16 11 8 5 3 2 1 1 4 8 10 10 9 8 8 9 10 11 12 13 14 15 16 16 17 17 17 17 18 20 21 21 21 21 20 19 20 23 26
14 13 13 14 16 17 17 15 15 16 14 14 13 14 15 18 18 16 15 14 11 8 7 4 4 5 6 6 6 6 7 8 9 12 14 15 14 14 13 13 14 15 16 16 15 14 16 17 15 12 9 6 2 2 2 3 5 8 11 12 11 9 9 9 9 10 11 12 13 14 15 17 17 17 16 17 17 18 18 18 17 17 17 17 18 21 23
15 14 13 14 17 18 18 18 18 18 17 16 16 17 18 20 20 18 17 16 14 9 5 4 3 4 5 5 6 7 7 8 8 8 8 8 8 7 4 5 8 9 9 11 14 16 16 14 13 12 11 7 3 3 4 6 7 9 11 11 10 9 9 9 10 11 11 12 13 14 16 18 18 17 17 17 17 18 17 17 16 15 15 15 15 17 19
15 14 14 16 18 18 19 19 20 19 19 19 20 21 22 22 21 20 19 20 19 14 7 2 2 2 2 2 2 4 4 4 3 2 2 1 2 2 1 2 3 4 5 9 14 17 15 12 10 12 12 10 6 5 5 7 9 10 11 11 10 10 10 10 11 11 11 12 13 14 16 17 19 18 17 17 16 16 16 16 16 16 16 14 14 14 15
13 13 14 15 18 19 19 20 20 20 20 20 19 21 24 25 24 22 22 23 24 22 15 7 4 5 6 7 7 8 8 8 8 6 5 3 2 2 3 4 5 6 6 9 11 12 12 10 10 11 12 10 8 6 7 9 11 12 13 12 11 11 11 12 13 14 13 14 15 15 15 16 17 18 18 17 15 15 15 16 16 15 15 14 14 14 14
11 13 14 14 16 18 19 19 19 20 21 21 21 21 24 26 25 24 24 24 25 27 24 17 12 11 11 11 11 12 12 13 12 11 9 8 6 4 4 6 10 12 11 11 11 10 10 9 9 11 12 11 9 8 9 11 13 14 14 14 12 12 13 14 15 15 14 14 16 16 15 15 16 16 16 16 15 15 15 16 16 15 15 14 14 14 14
11 13 14 13 15 17 18 19 20 20 21 22 23 24 25 26 26 25 23 22 24 28 28 23 18 15 14 14 14 16 17 16 16 17 16 14 11 8 6 8 13 15 14 13 13 10 9 8 7 9 11 11 11 10 11 13 14 15 15 15 14 14 15 15 15 14 14 14 15 15 15 14 14 14 15 15 14 14 14 15 15 15 15 15 15 15 15
9 13 14 13 15 17 18 18 19 20 21 22 23 24 25 26 26 25 24 23 24 27 28 27 24 21 19 19 19 20 19 18 18 20 21 20 17 12 9 11 16 18 15 13 13 11 8 6 4 7 9 10 11 12 12 14 15 16 17 17 17 17 18 19 20 20 19 19 19 17 15 16 16 16 17 18 17 16 17 18 18 17 16 16 16 17 17
5 9 11 12 13 15 16 17 17 18 19 21 22 22 23 24 25 25 24 25 26 26 26 27 28 27 24 23 23 22 20 20 19 18 18 21 24 21 17 16 19 20 17 15 16 15 12 8 4 1 5 7 9 11 13 15 17 17 18 19 19 20 21 23 25 25 25 26 26 22 20 22 24 25 26 26 24 23 24 25 23 21 21 21 20 20 20
2 4 7 10 11 12 14 15 16 16 17 19 21 22 22 22 23 24 23 24 26 27 27 26 26 26 26 26 25 22 20 21 22 18 15 17 21 24 23 21 21 22 21 21 22 22 19 16 12 6 5 8 10 12 14 15 17 18 19 19 21 22 21 22 23 23 23 24 26 24 22 22 25 26 26 26 26 26 27 27 26 25 27 26 24 23 24
2 2 3 6 9 10 11 12 13 14 15 16 19 21 22 22 22 23 23 23 25 26 27 26 25 25 24 25 25 24 24 25 26 23 17 13 13 18 22 25 26 26 26 26 26 26 25 21 17 13 10 10 12 15 17 17 18 19 20 20 21 22 22 22 22 23 23 24 26 27 27 26 27 27 27 28 29 29 29 28 27 27 28 27 26 26 26
5 3 3 4 6 7 8 9 11 13 15 16 16 18 20 20 20 21 22 23 22 23 23 24 25 25 23 22 22 23 25 27 29 28 24 19 17 19 23 25 27 28 29 29 29 29 26 23 21 20 18 17 18 20 22 23 23 24 25 25 25 26 26 25 24 25 25 25 26 27 29 29 28 27 27 27 27 26 25 24 24 24 23 22 22 22 22
6 5 4 4 5 6 7 8 9 12 14 14 13 14 16 17 17 18 19 20 21 21 22 23 24 24 24 24 23 22 21 22 25 27 28 26 25 25 26 26 28 30 32 33 33 31 29 27 27 26 24 23 24 24 25 26 28 29 29 29 29 29 30 29 29 29 28 28 27 27 26 25 24 23 22 22 22 21 21 21 20 19 18 17 17 16 16
6 6 6 5 4 5 6 8 9 10 11 12 12 13 14 14 15 15 17 18 19 19 21 23 23 23 24 24 24 24 23 21 20 20 23 26 27 28 28 29 31 33 34 34 34 34 32 32 33 32 31 29 28 27 26 27 30 32 32 32 31 30 30 30 29 29 29 29 29 27 26 25 24 24 23 23 22 21 20 20 18 17 16 16 15 14 14
6 7 7 7 6 5 5 7 9 9 10 10 11 12 13 13 14 14 16 17 17 17 18 20 21 22 23 23 23 24 25 25 23 22 24 27 28 28 28 28 30 32 33 34 34 34 34 34 35 36 35 33 32 30 30 30 31 32 33 33 32 31 30 30 29 29 28 28 28 28 28 28 28 27 25 23 22 22 22 22 21 20 19 18 17 15 14
6 7 8 9 8 6 5 5 7 8 9 10 11 11 12 12 13 13 14 14 15 15 16 17 18 19 20 22 22 22 23 23 24 26 28 29 29 28 28 28 29 30 31 32 32 34 34 35 35 36 35 35 34 32 32 32 32 33 33 33 32 31 30 29 29 29 28 26 25 25 25 26 26 25 23 21 20 20 20 19 19 18 17 16 14 13 11
5 6 6 7 8 7 5 4 5 6 7 9 10 11 11 11 11 12 13 13 13 13 13 14 16 16 16 17 19 20 21 20 21 24 26 28 29 29 30 31 33 34 34 35 35 36 36 36 36 36 36 36 35 34 32 32 32 33 34 33 33 31 30 29 29 29 29 28 27 26 25 24 23 22 20 18 17 16 15 14 14 13 12 11 10 9 8
5 6 6 7 7 7 7 6 6 6 6 8 9 10 10 9 10 11 12 12 12 12 12 13 14 15 15 14 15 16 17 19 20 21 23 26 28 29 29 30 32 33 34 35 36 36 36 37 37 37 37 37 35 34 33 32 32 32 32 32 32 32 31 31 31 30 30 29 28 26 24 23 21 19 17 16 15 14 13 12 12 11 11 10 9 8 7
Wind_Direction
273 278 281 284 281 274 270 271 273 277 283 276 254 245 256 274 259 258 294 242 231 299 3 336 335 336 324 325 335 336 331 327 327 322 307 284 250 221 205 196 192 193 194 189 184 182 184 186 185 184 185 186 186 185 183 184 186 186 183 182 183 185 187 191 194 194 194 196 199 201 200 202 206 206 205 207 208 208 212 216 217 218 219 221 226 230 232
276 275 274 272 269 268 266 262 260 264 270 268 267 254 241 239 242 260 283 289 316 53 354 334 332 331 325 320 328 340 339 337 335 320 303 290 270 241 213 199 196 197 194 190 185 180 181 184 183 182 182 182 182 182 182 183 186 185 182 180 182 185 188 192 193 191 193 196 199 202 204 207 210 210 209 209 210 210 214 218 218 218 218 217 220 225 227
273 274 274 264 257 258 260 259 251 245 250 262 307 318 254 246 241 246 267 273 254 57 357 336 326 327 332 328 335 344 341 336 330 313 299 289 276 264 237 209 199 197 194 188 181 179 183 185 182 181 181 181 182 184 184 184 185 184 182 181 182 187 191 193 191 193 197 200 202 205 207 210 212 213 212 211 212 214 216 218 218 218 217 217 218 221 222
273 277 274 262 261 263 260 255 239 213 183 95 64 52 41 3 292 264 271 269 254 10 345 324 320 341 346 340 340 341 334 330 324 311 300 288 275 266 252 228 205 197 194 185 179 183 187 186 184 182 179 178 182 185 186 185 184 184 184 184 185 189 191 189 190 195 198 199 201 204 207 209 211 213 213 210 211 214 215 216 216 216 217 218 220 221 220
270 265 300 303 291 269 250 234 212 168 113 95 79 55 38 20 349 274 260 297 332 339 327 311 315 339 349 358 353 343 336 329 322 314 306 297 289 274 257 240 216 200 193 187 183 185 185 186 187 185 179 179 183 185 184 182 181 183 185 186 187 189 189 187 190 195 195 195 198 201 205 208 210 210 210 209 211 212 213 214 215 216 218 219 220 220 220
264 301 327 302 254 236 213 140 173 153 113 99 85 57 35 27 20 359 336 338 335 330 325 317 309 301 327 18 10 357 349 337 326 321 314 306 303 291 266 244 223 202 190 187 186 184 184 185 185 182 181 181 181 180 177 176 177 180 183 184 185 185 186 188 191 194 194 194 197 200 203 206 207 208 208 209 211 212 213 213 213 215 218 219 219 220 220
269 319 314 248 221 200 118 70 80 120 100 99 100 72 39 33 24 7 354 344 334 328 323 315 304 283 256 45 26 10 356 345 334 325 319 315 312 303 275 240 218 194 180 181 182 181 181 180 176 174 177 177 174 174 173 172 173 174 176 179 181 182 184 187 190 193 194 195 197 199 202 204 205 206 207 208 209 211 212 212 213 216 219 219 220 221 221
261 288 240 222 221 151 132 76 42 53 62 87 113 88 42 32 24 7 353 342 334 330 324 320 318 297 252 213 30 11 357 347 339 328 323 319 315 307 279 237 208 187 182 182 181 178 176 174 172 171 174 174 172 173 174 173 175 175 174 177 180 183 186 189 191 193 194 195 197 198 199 201 202 204 205 207 209 210 211 213 215 217 219 219 220 221 222
234 245 241 259 307 188 158 70 25 16 8 24 115 106 55 33 22 9 354 345 342 338 337 339 333 308 257 240 4 0 352 342 333 328 327 323 321 316 289 239 187 163 169 171 168 168 168 171 173 173 173 174 173 173 174 174 175 176 178 182 184 186 189 191 192 193 193 194 196 197 197 198 201 203 205 207 209 209 210 213 215 216 217 219 220 221 222
233 246 252 254 250 208 151 9 350 339 331 310 199 135 81 30 16 7 356 354 352 348 350 350 340 315 244 335 348 345 341 334 325 325 332 333 332 334 317 241 168 150 152 155 156 160 164 169 172 171 172 171 169 169 172 173 173 176 181 186 187 188 191 192 191 191 193 194 195 195 196 198 201 204 205 208 209 209 210 213 216 217 218 219 220 221 221
243 236 235 244 233 196 360 337 326 324 311 270 218 155 82 22 12 4 355 356 359 356 355 356 358 14 44 348 331 329 328 322 314 319 337 344 343 349 350 319 173 156 150 151 155 158 162 167 168 166 167 167 164 166 170 172 174 178 185 188 189 190 191 191 191 192 193 195 196 196 197 199 202 204 207 209 210 210 211 214 216 218 219 218 219 221 221
247 237 236 264 249 13 344 329 320 319 301 248 206 173 86 12 2 359 355 354 357 358 355 360 19 37 19 327 311 315 316 309 305 322 345 351 352 1 3 352 6 154 148 148 157 162 165 167 166 164 164 165 166 167 169 172 176 183 187 188 189 190 190 191 192 193 195 196 196 197 199 201 204 206 208 210 209 208 211 214 217 219 219 218 220 222 222
242 236 239 276 261 6 341 327 320 320 298 223 187 163 37 354 344 348 355 350 348 352 356 4 18 12 343 313 303 308 311 307 313 340 354 355 1 12 12 5 11 148 156 157 165 169 165 162 164 164 164 166 168 167 167 174 184 188 188 187 186 186 188 190 193 194 196 197 198 200 203 205 206 207 208 209 207 207 211 214 216 218 218 219 222 225 225
235 231 239 260 184 33 345 328 319 322 297 184 148 54 2 340 338 343 348 343 340 345 351 357 354 336 328 322 314 314 315 312 326 351 358 358 6 15 19 17 16 33 140 152 162 163 159 159 163 166 166 166 167 167 172 183 188 187 185 184 184 184 186 190 193 194 196 199 200 202 205 205 204 205 207 208 207 207 210 212 214 216 217 217 222 226 227
228 215 219 234 181 6 344 334 331 357 46 104 68 19 7 358 351 346 340 336 336 338 340 342 338 332 330 329 326 324 324 327 342 355 356 359 6 13 20 23 21 26 58 95 122 146 158 164 166 168 169 168 168 173 181 187 185 182 183 185 185 186 189 191 193 195 197 200 203 204 204 203 203 205 207 206 205 206 207 208 211 214 214 215 220 226 228
290 187 100 10 325 321 328 335 9 57 63 65 41 9 0 360 355 350 340 329 328 333 334 331 331 332 332 333 335 335 336 342 349 350 351 358 4 8 16 22 28 44 61 64 74 109 149 162 166 169 170 169 171 178 184 185 183 183 187 188 187 188 189 192 194 196 198 202 204 205 205 203 204 206 206 205 205 204 204 206 210 215 219 219 222 227 229
2 62 48 358 314 307 305 301 87 82 67 47 28 11 356 347 346 344 332 323 324 328 328 326 326 328 330 332 336 337 336 340 346 346 348 356 0 3 9 13 20 42 70 79 79 80 92 128 155 166 168 165 166 172 179 184 186 187 187 188 189 190 190 193 195 196 198 201 204 206 205 203 205 207 206 204 204 204 205 207 211 215 221 221 222 228 231
338 62 48 359 326 324 322 252 109 74 28 3 4 358 345 335 331 326 316 315 318 320 321 324 322 321 326 331 335 335 335 339 346 348 350 354 358 1 6 7 8 22 55 73 77 74 66 75 118 145 157 160 160 164 174 181 185 187 187 189 191 191 192 195 198 199 199 200 203 205 205 204 207 210 207 204 204 205 205 207 211 216 220 220 222 228 232
336 23 32 360 332 329 19 60 36 8 349 341 345 343 333 325 320 314 306 306 310 313 315 318 314 314 323 331 333 334 338 342 346 348 349 353 354 354 359 5 5 10 31 48 58 66 63 57 74 107 133 146 152 160 169 175 181 186 188 190 193 195 199 202 203 204 203 202 202 202 202 205 209 211 209 205 204 204 203 206 212 218 221 222 223 227 231
355 357 5 348 325 305 30 35 5 345 335 329 325 323 320 316 311 305 299 301 307 310 310 310 311 313 319 327 331 333 338 342 345 348 348 349 352 352 355 3 8 13 22 30 40 55 58 51 58 83 106 123 135 146 155 162 169 174 179 184 189 194 198 202 205 207 208 208 206 203 202 204 207 208 208 208 208 207 206 207 209 214 217 218 218 221 224
357 358 352 349 334 305 325 349 343 333 327 320 314 313 316 314 309 303 298 299 301 302 303 304 307 310 314 323 330 332 335 340 345 346 345 348 353 355 356 360 8 16 21 24 33 46 49 44 50 68 83 97 114 130 140 148 153 157 161 166 171 177 182 187 197 204 207 208 208 204 199 199 201 203 206 207 209 212 211 210 210 211 213 213 213 217 219
4 359 350 348 341 310 311 325 326 323 321 316 310 311 314 312 308 305 303 304 303 300 298 299 304 308 311 318 326 329 331 339 342 343 345 350 354 356 357 360 6 12 13 13 21 33 35 34 45 59 68 78 92 111 132 146 152 156 160 161 161 166 169 168 180 189 192 194 197 197 195 194 193 192 197 202 206 208 210 211 213 215 217 218 218 217 217
342 344 343 340 329 303 303 313 317 318 319 314 307 303 301 301 302 302 301 303 304 303 300 298 301 304 306 313 322 328 329 334 341 344 347 348 348 351 356 3 7 7 5 4 9 15 17 25 40 51 58 65 74 87 109 135 152 159 163 165 161 159 162 166 172 175 171 173 182 186 187 187 184 179 177 184 193 201 206 210 213 215 219 223 225 225 226
329 337 340 334 323 312 310 316 317 316 316 313 306 299 294 294 298 299 295 291 294 298 300 300 299 300 303 312 320 325 326 331 340 346 346 344 343 347 356 5 9 5 0 359 359 358 1 17 36 46 53 59 62 70 86 103 135 157 165 167 156 143 146 161 169 168 164 165 169 170 171 174 175 170 160 150 148 165 189 200 205 209 214 220 224 226 228
338 337 334 327 319 316 319 321 319 317 320 318 308 301 299 297 296 295 291 282 282 287 293 298 299 299 301 308 316 320 322 329 336 342 344 343 346 352 356 359 1 360 356 353 353 350 353 8 28 38 44 50 55 62 74 86 111 145 153 148 136 134 142 151 157 161 160 159 162 165 165 168 172 170 162 149 135 125 128 151 175 189 198 206 211 212 214
344 339 334 327 322 326 335 331 323 323 323 317 307 302 302 300 298 296 290 282 280 282 283 287 293 295 294 299 311 316 319 324 331 338 345 347 349 353 352 348 347 350 352 353 354 354 355 1 14 25 30 35 48 60 68 80 102 119 119 112 118 133 145 149 149 153 156 157 162 165 164 166 169 167 159 147 140 133 126 124 127 133 145 163 180 187 188
347 346 342 334 332 341 344 334 326 324 321 316 311 309 306 303 301 297 289 280 274 272 274 278 281 284 287 291 303 313 317 322 325 331 343 351 350 347 342 338 339 344 350 354 355 356 357 357 0 10 18 21 36 61 68 76 94 97 95 105 117 123 128 133 135 139 145 151 156 159 159 158 157 151 141 136 137 137 131 121 112 107 106 113 129 148 154
348 350 349 342 337 337 333 328 326 323 321 320 318 314 311 307 304 301 294 287 276 262 261 268 267 269 278 288 299 309 315 317 318 321 332 344 347 342 336 335 338 341 348 359 1 357 356 354 351 356 6 10 17 44 60 65 80 86 87 97 107 110 112 117 122 125 132 139 144 149 151 147 139 131 126 125 125 121 117 114 111 107 104 106 110 118 124
348 348 349 346 338 332 329 330 331 328 326 326 324 319 314 311 306 302 299 294 286 269 257 260 258 256 265 278 289 299 304 306 308 311 317 327 338 340 336 335 338 342 352 7 6 358 353 351 349 352 357 360 7 23 31 41 64 82 84 75 81 92 97 102 114 123 126 129 134 138 140 139 135 129 122 118 116 113 110 109 111 110 110 109 109 110 113
345 347 349 347 341 338 337 337 336 334 332 331 327 321 317 312 305 299 294 290 282 270 257 252 254 254 257 265 275 283 287 292 298 302 306 312 321 328 331 334 341 349 356 359 358 354 350 346 344 349 352 353 5 25 36 46 62 76 74 63 70 87 98 102 114 124 127 127 127 129 131 132 131 128 124 118 113 110 109 112 114 114 113 112 111 112 114
345 349 351 348 345 344 344 342 339 337 336 333 330 327 323 319 311 300 293 287 277 267 258 251 251 250 248 253 262 271 277 283 289 294 299 305 312 319 325 331 340 348 348 343 343 349 353 349 344 345 347 347 359 27 51 71 78 78 68 58 67 93 109 113 116 122 125 126 124 122 123 124 124 124 122 118 114 111 111 111 112 112 113 113 114 120 124
349 352 352 350 350 349 347 345 342 341 339 337 335 331 325 319 312 303 294 282 271 267 260 252 250 249 245 247 251 256 264 274 281 286 292 298 305 313 319 325 331 336 338 336 338 346 353 354 349 344 342 341 342 359 44 75 86 87 77 64 70 95 109 113 115 117 120 123 122 120 120 120 118 117 117 117 118 116 113 111 109 109 112 114 117 125 129
355 354 351 351 352 350 348 348 346 343 341 340 336 330 323 320 317 312 304 285 269 266 257 245 246 249 245 241 240 240 250 266 279 286 289 290 294 303 312 320 326 330 331 332 335 340 345 346 343 339 339 339 334 334 8 70 90 98 94 84 84 100 108 111 114 115 116 116 115 115 117 117 116 116 116 117 117 116 115 114 113 113 112 113 116 124 130
358 353 349 351 353 350 348 348 347 343 342 342 341 338 335 332 330 329 327 311 280 269 262 245 239 241 238 233 232 232 239 256 274 277 276 277 281 290 302 312 319 324 325 327 330 335 338 338 335 331 333 337 331 324 347 94 105 111 111 106 100 100 104 107 110 113 114 112 110 111 112 113 114 116 118 119 119 118 117 116 116 114 112 109 111 118 125
357 356 353 353 354 352 350 351 351 348 346 345 346 347 345 340 337 339 345 345 324 295 282 257 230 231 236 233 231 230 233 241 252 260 264 268 274 284 294 302 311 318 320 321 324 327 329 330 330 325 321 324 324 311 312 104 116 127 129 125 114 105 103 106 108 109 109 110 110 110 111 111 113 115 117 117 117 117 116 115 115 114 113 111 111 113 117
357 359 357 355 355 354 354 357 357 354 351 346 345 349 351 348 344 344 349 351 341 317 296 270 226 219 226 227 224 224 229 237 246 255 262 266 270 278 288 299 312 320 321 319 321 321 322 325 327 322 311 303 290 240 211 172 155 152 145 133 122 116 112 107 105 105 106 108 109 109 109 110 110 110 111 111 112 113 113 112 113 113 113 113 113 111 111
356 357 357 358 357 356 358 2 2 359 357 353 352 356 360 356 350 348 351 355 356 349 320 277 242 219 223 230 226 216 215 221 230 241 253 256 253 255 274 308 324 328 323 316 316 319 322 324 322 313 300 290 271 221 199 187 179 170 153 135 124 124 123 114 108 107 106 107 109 110 110 111 110 108 110 110 110 112 112 111 111 111 110 109 110 108 106
354 356 357 359 360 359 360 4 6 4 2 360 357 359 3 2 358 358 1 3 7 12 10 315 263 233 210 200 167 149 143 136 135 139 139 170 208 201 131 58 356 336 316 306 310 317 322 320 307 295 289 283 271 246 211 190 182 174 161 143 129 128 129 124 119 116 113 114 116 115 113 113 112 112 112 110 108 109 111 110 110 110 108 106 106 106 103
353 355 355 358 2 3 2 4 6 7 7 5 1 1 4 7 8 11 12 11 13 19 25 32 49 70 84 86 80 73 67 64 64 67 72 77 87 117 113 73 25 357 326 311 313 318 320 311 290 277 273 266 254 240 216 195 184 176 166 152 134 125 125 123 121 122 122 122 123 120 114 110 109 109 109 110 109 109 110 110 110 110 108 107 107 105 103
351 354 354 358 4 5 3 4 8 10 11 11 10 9 9 11 16 20 18 13 15 22 29 35 44 53 59 63 62 55 51 49 46 42 42 43 41 55 70 35 12 1 346 335 333 330 321 308 281 260 256 248 233 220 207 194 184 173 162 152 136 123 119 116 115 118 120 121 123 124 120 113 109 108 108 109 109 110 110 110 109 109 108 106 105 104 103
346 351 353 358 6 9 7 6 8 11 13 15 16 14 13 15 21 25 20 13 16 25 32 36 41 45 48 53 57 56 54 53 50 47 45 42 34 31 33 18 7 2 353 347 347 342 327 309 273 244 239 235 226 216 202 189 179 168 157 149 137 126 121 116 112 113 115 113 115 120 121 115 111 110 110 108 107 107 108 106 104 104 105 104 104 105 106
343 351 354 357 4 10 12 10 10 13 16 17 17 16 16 18 22 26 24 21 23 28 32 36 42 45 47 50 53 51 49 52 55 55 53 49 42 36 28 18 13 9 4 0 2 1 348 325 274 228 219 218 218 213 200 185 173 162 152 145 136 129 125 122 121 121 119 114 109 108 110 110 108 106 106 106 104 103 104 104 101 100 100 100 100 103 105
337 354 360 360 3 9 14 14 14 16 18 20 20 21 20 20 21 23 25 27 28 29 31 36 41 43 44 48 51 48 42 42 49 54 55 53 49 45 41 33 25 21 22 26 27 24 21 20 23 186 194 192 191 190 185 176 167 157 148 140 134 128 124 123 124 124 121 116 112 107 104 106 108 107 105 104 103 103 104 105 103 102 103 103 102 103 105
323 351 3 5 6 9 13 16 17 17 17 19 23 27 28 26 25 26 28 31 32 33 33 35 38 41 44 47 50 49 41 38 40 43 46 50 48 45 46 48 43 38 39 43 42 38 37 39 44 63 131 157 159 159 157 154 150 145 139 131 126 121 115 114 116 117 115 112 112 109 103 102 105 107 106 105 105 105 105 105 106 108 110 110 109 108 109
7 341 351 7 13 14 14 17 19 19 18 19 24 29 32 32 30 31 33 35 35 35 35 35 38 41 44 48 52 53 51 48 45 43 41 43 43 42 48 55 55 52 52 53 50 44 43 45 51 61 83 109 124 127 123 119 118 119 117 114 113 112 108 106 108 109 107 106 107 108 106 103 102 104 104 104 105 104 104 105 107 109 109 109 109 110 110
22 2 331 352 13 16 14 14 19 23 25 27 29 31 32 32 32 35 37 38 38 38 38 38 40 42 44 48 52 54 54 52 50 48 46 47 49 51 56 59 59 57 58 59 55 49 48 53 59 64 70 80 92 99 100 99 99 99 98 96 96 98 97 95 93 95 95 95 95 97 99 99 98 99 100 100 99 99 99 99 100 100 100 100 102 104 105
18 13 348 339 360 14 13 14 21 28 31 32 34 32 29 28 28 32 36 41 44 44 43 44 45 44 45 48 51 52 54 55 52 48 47 50 53 56 59 62 63 63 62 61 58 55 55 59 64 66 69 73 78 82 87 91 92 91 90 89 89 90 92 91 89 90 91 89 87 87 88 88 88 90 91 90 89 89 90 90 90 90 91 92 93 95 96
13 11 356 346 360 22 21 21 28 34 34 33 34 34 32 31 30 31 36 44 48 47 46 47 48 48 48 50 51 53 56 60 58 49 47 52 56 56 56 59 64 66 65 63 60 59 61 64 67 68 68 69 70 73 77 82 85 85 85 84 84 85 87 88 89 91 92 90 88 86 84 83 83 85 85 84 84 84 85 86 87 88 89 91 90 90 91
14 12 3 359 7 27 33 31 33 36 33 30 30 30 32 36 39 38 39 43 47 47 46 48 50 51 52 54 55 56 59 63 65 61 57 58 60 60 59 59 61 65 66 65 63 62 63 66 69 69 67 65 65 67 70 74 78 80 82 81 81 82 83 83 84 86 85 84 84 85 86 87 88 87 85 82 83 85 89 92 94 95 96 96 94 92 91
23 21 13 6 9 21 33 32 31 32 31 28 27 26 29 35 41 42 40 41 44 46 45 45 48 52 55 57 59 59 59 61 63 64 63 62 61 62 62 62 62 63 65 66 65 64 64 66 68 69 69 66 64 63 65 69 73 76 79 79 80 81 82 82 83 82 79 76 75 76 77 81 84 84 81 80 81 83 85 89 90 91 91 91 89 87 87
27 29 25 17 17 27 34 27 17 19 23 23 22 24 27 33 39 44 44 44 46 48 47 43 44 48 54 58 61 61 61 61 62 63 64 65 66 66 66 66 66 65 65 65 64 64 64 65 66 68 70 69 68 66 66 67 70 73 76 78 78 79 80 81 81 82 81 82 82 80 79 79 80 79 77 76 78 78 79 81 81 80 80 80 80 80 83
37 35 34 27 27 33 39 35 26 21 21 21 21 23 26 29 35 42 46 48 50 55 57 53 48 48 51 55 58 58 60 62 64 65 65 67 69 70 70 70 69 69 68 67 67 67 67 68 69 70 71 72 72 73 72 71 71 72 74 76 78 79 81 82 84 86 86 86 85 84 82 82 81 79 77 77 78 77 76 76 77 75 73 74 75 77 80
Height
764 759 759 760 760 757 752 748 744 740 738 739 740 738 731 729 732 724 709 705 709 703 698 699 696 693 691 687 685 684 682 680 678 676 675 674 672 672 672 673 674 675 676 678 680 682 684 688 692 695 700 705 709 714 718 723 727 731 735 739 743 748 752 756 759 762 766 770 773 776 780 782 785 788 791 794 796 799 800 802 805 807 809 811 813 814 816
764 758 757 758 757 754 750 747 742 737 734 732 731 729 725 726 728 721 713 711 711 708 706 703 698 695 694 691 689 687 685 684 682 680 677 673 669 668 668 668 668 669 670 672 674 678 681 684 687 691 696 700 704 709 713 718 723 727 731 734 738 744 748 751 755 758 762 766 769 772 776 778 781 785 788 790 793 795 797 799 802 804 806 808 810 811 813
765 755 752 752 751 750 748 743 736 732 730 727 726 727 725 726 725 720 716 716 714 709 706 703 699 696 695 693 692 691 688 687 686 683 679 674 669 665 663 662 663 663 665 667 670 674 677 680 682 686 690 694 699 704 709 714 718 722 727 730 734 739 743 746 751 755 758 762 765 769 772 775 778 781 784 787 789 792 794 796 799 801 803 805 806 808 809
765 752 750 748 745 747 747 742 734 729 727 728 731 734 734 735 733 726 719 717 717 714 709 704 699 696 696 696 695 694 692 690 688 685 680 675 670 664 660 658 658 658 661 664 666 669 671 675 679 683 686 691 696 701 705 709 714 719 723 726 731 735 739 743 747 750 755 759 762 765 768 771 775 777 781 783 786 788 791 793 795 798 800 801 803 805 807
763 751 751 750 749 751 745 733 727 726 727 730 733 737 739 738 736 732 725 722 722 720 714 708 703 700 699 698 696 695 694 691 688 685 679 673 667 661 656 654 653 654 655 657 659 662 665 669 673 676 681 687 691 695 700 705 711 716 719 723 728 733 737 741 744 747 752 756 759 762 765 768 771 774 777 780 782 785 787 790 792 794 796 798 800 802 803
766 753 752 753 754 751 735 721 718 721 724 729 735 742 744 740 738 736 733 730 727 723 718 713 707 702 699 697 696 694 693 691 688 683 677 670 664 658 652 649 648 648 649 651 653 656 659 663 668 674 680 684 689 694 699 703 708 712 717 721 726 730 734 737 741 745 749 752 755 759 761 765 768 770 773 776 778 782 784 787 789 790 792 795 796 798 799
769 758 758 758 752 740 728 724 722 720 721 724 732 742 744 740 740 740 737 734 730 724 719 712 705 700 696 693 693 692 690 689 686 682 676 668 663 657 650 646 644 643 645 648 651 654 658 663 669 675 680 684 689 694 697 701 706 710 714 719 723 727 731 734 738 742 745 748 752 755 758 761 764 766 769 772 775 778 781 783 785 786 788 791 792 794 796
775 766 760 754 743 730 725 728 729 726 725 724 728 739 745 742 743 744 742 738 733 726 718 708 701 697 692 689 690 691 689 687 685 681 675 667 662 656 649 644 641 640 641 645 649 652 657 662 667 672 677 681 686 691 695 699 704 708 712 716 720 724 727 731 734 738 741 745 748 751 754 757 760 763 766 768 771 774 777 779 781 782 784 786 788 790 791
775 764 754 746 742 737 733 734 737 738 737 733 731 739 746 745 743 745 744 740 735 727 718 708 700 693 689 690 691 689 688 687 684 679 673 665 659 653 646 640 639 639 641 644 648 653 657 661 665 669 674 679 683 688 693 697 701 706 710 714 717 720 723 726 730 733 737 740 743 747 750 753 756 759 761 764 767 770 773 775 777 779 780 782 783 785 786
771 763 756 747 744 744 743 742 742 740 739 737 732 734 743 746 744 746 745 741 737 730 720 712 701 690 692 700 699 692 690 688 683 678 671 664 657 650 644 640 637 639 641 644 649 654 658 662 666 669 673 677 681 686 690 694 699 703 707 710 713 716 719 723 726 729 733 736 739 743 746 748 752 755 757 760 763 765 768 770 772 774 776 777 779 780 781
771 766 760 749 744 748 750 749 744 737 737 738 732 732 743 749 748 748 747 743 740 735 727 720 709 702 709 715 709 700 696 692 685 679 671 664 658 650 645 642 639 639 641 645 649 653 657 661 665 669 672 676 680 683 687 691 696 699 703 706 709 713 716 720 723 726 729 732 735 738 741 744 747 750 753 756 758 761 764 766 768 770 772 773 774 775 777
770 764 757 749 747 751 753 749 742 736 736 737 732 732 744 752 753 752 751 747 743 739 734 727 722 723 729 729 718 708 702 695 687 679 672 667 660 653 648 645 642 641 642 645 648 651 654 658 662 667 671 675 678 682 685 689 693 695 698 702 705 709 713 717 720 723 726 729 732 734 737 740 743 746 749 752 755 757 760 762 764 766 767 769 770 771 772
766 763 758 752 750 753 753 748 741 736 735 734 733 740 751 757 756 754 753 751 748 744 738 733 731 732 733 730 721 712 704 696 687 679 672 668 662 656 652 650 647 645 645 644 645 648 651 656 661 665 669 673 677 680 684 686 689 691 694 698 702 707 711 714 717 720 723 726 729 731 734 737 740 743 746 748 751 754 756 758 760 761 763 765 766 767 768
761 760 757 752 751 756 755 748 740 735 735 737 744 752 758 759 757 755 754 752 750 747 742 738 736 733 729 725 720 713 706 699 689 680 675 671 666 661 657 654 651 649 648 647 647 648 651 655 659 663 667 671 675 678 681 682 684 688 692 696 700 704 708 712 715 718 721 723 726 728 731 734 737 740 742 745 748 750 752 754 756 757 759 761 762 764 765
757 754 753 751 754 758 757 751 745 742 743 750 755 757 757 757 757 756 754 752 750 748 744 739 735 731 727 723 718 712 706 698 690 684 679 675 670 665 661 658 656 653 651 651 651 651 654 656 659 662 666 669 673 675 677 679 682 687 690 694 698 702 706 709 712 715 717 720 722 725 728 731 734 736 739 741 744 746 748 750 753 754 756 758 759 761 762
758 754 757 762 766 765 761 758 756 754 755 758 759 758 758 757 756 756 754 752 750 748 745 740 735 730 727 723 717 712 706 698 692 688 683 678 673 670 666 663 661 658 656 655 655 656 657 658 660 663 665 668 671 673 675 678 682 685 688 692 696 700 703 706 709 711 714 717 719 722 725 728 730 733 735 738 740 742 744 747 749 751 753 755 756 757 758
766 765 769 772 771 766 762 759 759 759 758 759 759 760 760 758 756 756 755 752 749 747 745 740 735 730 727 723 719 715 709 702 697 693 687 682 678 674 670 667 665 662 661 660 659 659 660 661 662 664 665 668 671 673 675 678 681 684 687 691 694 697 700 703 706 708 711 714 716 719 722 724 727 729 731 734 736 738 741 743 745 747 749 751 753 754 755
769 770 772 772 769 764 761 758 758 759 758 758 758 758 758 758 757 756 754 752 750 747 744 740 736 732 727 723 720 717 712 705 700 695 690 686 682 678 674 671 669 667 665 664 663 663 664 664 665 666 668 670 672 675 677 679 681 683 686 689 692 695 698 700 703 706 709 711 713 716 718 720 722 724 727 730 732 734 737 739 742 744 745 747 749 751 752
771 770 771 772 770 765 760 758 759 758 757 757 757 757 757 757 755 754 753 752 749 746 743 741 737 732 727 724 721 718 713 708 704 699 695 690 686 683 680 677 674 671 669 668 668 668 668 669 669 670 671 672 674 677 678 680 682 684 686 689 691 694 696 699 701 703 706 708 710 713 715 717 719 721 723 726 728 730 733 735 738 740 742 743 745 747 748
773 771 771 771 768 762 759 760 760 759 757 755 754 755 756 755 753 752 751 749 748 746 743 740 737 731 727 725 722 719 715 712 708 704 700 696 692 687 684 681 678 675 673 673 672 672 673 673 673 674 674 675 677 678 679 681 682 684 686 689 690 692 694 696 699 701 703 705 707 709 712 714 716 718 720 722 724 726 728 730 733 735 737 739 741 742 744
773 771 771 771 767 761 758 759 760 759 757 755 752 751 752 752 751 750 749 747 747 745 742 740 737 732 728 725 723 720 717 714 711 708 704 701 697 693 688 685 682 680 679 678 677 676 677 678 677 677 678 679 679 680 681 682 682 683 686 688 690 692 693 694 696 698 700 702 704 707 709 710 712 714 716 718 720 723 724 726 729 731 733 735 737 739 740
777 777 777 777 774 769 763 760 759 757 756 755 753 751 751 750 750 749 747 745 744 743 741 739 737 733 729 725 722 720 718 716 714 710 707 703 700 697 693 689 686 684 683 682 681 681 681 681 680 680 680 680 681 682 683 684 684 684 686 688 690 691 692 693 695 696 698 700 702 703 705 707 709 711 714 716 718 720 722 724 726 729 731 732 734 736 738
783 781 779 778 777 775 768 762 759 757 755 754 753 752 751 750 749 748 747 745 743 741 740 737 735 733 729 725 722 720 718 717 715 713 710 707 704 701 698 694 691 689 688 687 686 685 685 684 683 683 682 683 684 684 685 686 686 686 687 689 689 689 690 692 694 695 697 698 699 701 703 705 708 710 713 715 717 718 720 722 724 727 729 730 732 734 736
784 780 778 777 776 773 767 762 760 757 755 754 752 751 750 749 747 746 745 744 742 740 738 736 734 732 729 726 723 720 718 717 716 715 713 710 707 704 701 698 695 694 692 692 691 690 690 688 687 686 686 687 687 686 686 687 688 688 688 689 688 687 689 691 693 695 696 697 698 700 702 705 707 710 712 714 716 718 719 720 722 724 726 728 730 732 734
783 780 777 775 773 770 766 763 759 757 755 754 752 749 748 746 744 743 742 741 740 738 737 736 733 731 729 726 724 721 719 718 717 717 715 711 708 704 702 700 699 698 697 696 695 694 693 692 691 690 690 690 689 688 687 688 690 690 689 688 687 687 689 691 693 695 696 697 699 701 702 705 707 709 711 712 714 716 718 720 721 723 724 726 728 730 732
781 779 776 773 770 768 765 763 760 757 755 754 751 748 746 743 742 740 738 737 737 736 735 735 733 731 729 727 725 723 720 718 718 718 717 714 710 707 705 704 703 702 700 699 698 697 696 695 694 694 693 692 691 691 691 692 692 692 691 690 689 689 690 692 693 696 697 698 699 701 702 704 706 708 710 711 712 715 717 719 721 723 724 726 727 729 730
779 777 776 773 770 767 766 765 761 757 754 752 750 747 744 742 740 738 736 734 734 734 734 734 733 731 729 727 726 724 722 719 719 719 719 717 715 712 710 709 707 705 703 702 701 700 699 698 697 696 696 695 695 694 694 695 694 693 693 693 691 691 691 692 693 695 697 698 699 701 702 703 705 707 709 711 713 715 717 718 721 723 725 727 728 729 730
779 777 776 775 773 770 767 764 761 757 754 751 749 747 744 741 739 737 735 733 732 732 732 732 732 730 729 728 727 726 724 722 720 719 719 719 718 716 715 713 710 707 706 705 704 703 701 700 700 699 698 698 697 697 697 696 695 694 695 695 693 691 691 692 693 695 696 698 699 700 701 703 705 706 709 711 714 716 718 720 722 724 727 729 731 732 733
780 777 776 775 774 771 767 763 760 757 753 750 748 746 744 741 738 736 734 732 731 730 730 730 730 730 729 729 728 727 726 725 722 719 718 718 719 719 719 717 714 710 708 707 706 705 704 703 702 701 701 700 699 698 698 697 696 696 697 696 693 691 691 692 694 695 696 697 698 700 701 703 705 707 709 712 714 717 719 722 725 727 730 732 734 735 738
780 777 775 774 772 770 766 763 760 757 753 750 747 745 743 741 738 735 733 731 729 728 728 728 728 728 728 728 728 727 727 727 725 722 719 717 719 720 721 720 717 713 710 709 709 709 708 706 705 704 703 702 701 700 699 698 697 698 698 697 694 692 693 694 695 696 697 698 699 700 702 704 706 708 710 713 716 719 722 725 727 730 733 736 738 739 740
780 777 776 774 772 769 767 764 761 757 754 751 747 744 741 739 736 733 731 729 727 726 725 725 725 726 727 728 727 727 727 727 726 724 721 719 719 720 720 720 718 716 715 714 713 711 710 709 708 706 705 704 703 702 701 701 700 700 699 698 696 695 696 697 698 699 699 699 701 702 704 706 708 710 712 715 718 721 724 727 730 732 734 737 739 740 740
781 778 777 775 772 770 767 764 761 758 755 751 747 744 740 737 734 731 728 726 725 724 723 723 723 724 725 726 726 727 727 727 726 726 725 723 721 720 719 718 717 717 717 716 715 714 712 711 710 708 707 706 705 704 703 703 701 700 701 701 701 701 701 701 702 703 703 702 703 704 706 708 710 712 715 717 720 722 725 728 731 734 736 738 740 742 743
782 780 778 776 773 771 768 764 762 759 756 752 749 744 739 735 732 728 724 722 722 722 722 721 721 721 722 724 725 726 726 726 726 726 725 723 722 721 720 718 717 717 717 716 716 715 714 712 711 710 708 707 706 706 706 705 703 701 702 705 707 707 706 706 706 707 707 706 706 707 708 710 712 714 717 720 722 725 727 729 732 735 737 739 742 744 745
784 782 780 777 775 773 770 766 763 759 756 752 749 745 739 735 731 726 722 720 719 719 719 720 720 720 721 722 723 724 725 725 726 726 725 724 722 721 720 719 718 718 717 716 715 715 714 714 713 711 709 707 707 707 707 706 704 703 705 708 710 711 711 710 710 710 710 710 710 710 712 713 715 717 720 722 725 727 729 732 734 736 738 741 744 745 746
784 782 780 777 775 774 771 768 765 761 757 753 749 745 741 736 732 728 724 720 718 717 718 718 719 719 720 721 722 722 723 724 725 725 725 724 722 721 720 719 718 718 719 718 716 715 715 715 715 713 710 708 706 706 708 708 707 707 708 711 713 714 714 714 713 713 713 713 713 713 714 716 718 720 722 724 727 729 731 734 736 738 740 744 746 746 747
783 781 779 777 775 773 771 769 766 763 759 755 751 747 743 738 733 729 726 723 720 718 717 717 718 718 719 721 722 722 723 723 724 724 724 722 721 721 721 721 719 719 719 718 715 714 714 715 715 714 712 709 707 706 708 709 711 712 712 713 714 716 717 717 716 716 716 716 716 716 717 718 720 722 725 727 729 732 734 736 739 741 743 746 747 747 748
784 782 780 777 775 773 771 769 767 764 761 757 753 749 744 739 735 731 728 724 721 718 716 716 717 717 718 719 720 721 722 722 723 723 722 722 721 722 722 722 722 722 721 718 716 714 713 713 713 713 713 710 708 707 708 711 713 714 715 715 715 716 717 717 718 718 718 718 718 718 719 720 722 725 727 729 732 734 736 739 741 743 745 747 748 749 750
785 783 781 778 776 774 771 769 768 766 763 759 755 750 746 742 737 733 728 725 721 718 716 716 716 716 716 717 718 720 721 721 722 722 723 723 723 723 723 724 725 725 723 721 718 716 714 713 713 714 714 712 710 709 709 711 713 714 715 716 716 716 717 717 718 719 721 721 721 721 721 722 724 726 729 731 734 736 738 740 742 744 746 747 749 750 752
785 784 782 780 777 775 772 770 769 767 764 761 757 753 749 744 739 735 731 727 723 719 717 717 716 716 717 717 718 719 720 720 721 722 723 724 724 724 724 725 726 725 724 722 720 718 717 716 716 716 715 714 713 712 712 712 713 714 715 716 716 716 716 717 718 720 723 724 724 724 724 725 725 727 730 732 735 737 740 741 743 745 747 749 750 751 753
786 785 783 781 779 777 774 772 770 768 766 764 760 757 753 748 742 738 734 731 727 723 721 720 719 719 719 720 721 721 721 721 721 722 723 723 724 724 724 725 724 723 722 721 719 717 717 717 716 716 716 715 715 714 714 714 714 714 715 716 717 716 716 716 717 720 724 726 727 727 727 728 729 730 732 734 737 739 741 743 744 746 748 750 752 753 755
786 785 784 783 781 779 776 774 771 769 768 765 763 760 756 752 746 742 739 737 733 729 726 725 724 724 724 724 724 724 724 724 724 724 724 723 723 723 723 724 724 723 721 720 718 716 716 716 716 716 716 715 715 715 716 716 715 715 715 716 716 715 715 716 718 721 724 727 728 729 729 730 731 732 734 736 738 741 743 745 747 748 750 752 754 756 758
787 786 785 783 782 781 779 777 775 772 770 768 765 762 759 755 751 748 745 742 738 734 732 730 729 728 728 727 727 727 727 728 728 727 727 726 726 725 725 725 724 723 721 720 718 717 717 717 716 716 716 716 715 715 716 717 717 716 716 717 716 716 715 716 718 722 725 727 728 730 731 732 733 734 735 737 740 742 744 746 748 751 753 755 757 758 759
789 788 786 785 783 782 781 780 778 776 773 771 768 766 763 759 756 753 749 746 743 740 737 735 733 732 731 731 730 730 732 732 732 731 731 731 730 729 728 727 725 723 721 720 719 718 718 718 717 717 716 716 716 716 716 717 717 717 717 717 716 716 715 717 719 723 726 727 729 732 733 734 735 736 738 739 742 744 746 747 750 752 754 756 758 760 762
791 790 788 787 786 785 784 782 781 778 776 773 770 768 766 763 761 757 754 751 748 746 744 742 740 738 737 736 735 736 737 737 736 735 735 734 733 732 731 730 727 725 723 722 721 721 720 720 719 719 718 717 717 717 718 718 718 718 718 718 717 716 717 719 722 725 727 729 731 733 735 736 738 739 741 743 745 746 748 750 753 755 756 758 761 763 764
791 790 790 789 788 787 786 784 782 780 777 775 772 769 768 767 765 762 759 757 754 752 750 748 747 745 744 743 742 742 742 742 741 740 739 738 737 737 736 734 731 730 727 726 725 725 724 723 723 722 722 721 720 720 720 721 721 721 721 721 720 720 720 722 725 728 730 732 733 735 737 739 740 743 745 746 748 750 752 754 757 759 760 762 764 766 767
791 791 790 789 789 788 787 786 784 781 779 776 773 771 770 769 768 766 764 762 760 758 757 755 753 752 751 750 748 747 746 745 744 744 744 743 742 742 740 737 735 734 732 730 730 730 730 728 727 726 726 726 725 724 724 724 724 724 725 726 726 726 727 728 729 731 733 735 737 738 740 742 744 747 749 751 753 755 757 759 761 763 765 767 769 770 771
792 791 790 789 789 789 788 786 784 782 780 778 777 775 774 772 770 769 767 766 765 764 762 761 759 758 756 755 753 751 750 748 748 748 748 747 745 744 742 740 738 737 736 734 735 736 735 734 732 731 731 731 730 730 730 729 729 729 730 731 731 732 734 735 736 737 738 740 741 743 745 747 750 753 755 756 758 759 761 763 765 767 770 772 773 775 776
793 792 790 789 789 789 788 787 785 784 783 782 780 779 778 776 774 772 770 769 768 767 766 765 763 762 760 758 757 755 753 752 751 752 753 751 749 747 745 743 741 740 739 738 739 740 740 739 737 736 736 736 736 736 736 735 734 734 735 736 738 739 741 743 744 746 746 746 747 749 751 753 755 757 759 761 762 764 765 767 769 771 773 775 776 778 779
793 792 791 789 788 788 788 788 786 785 784 784 782 782 780 778 776 774 773 771 770 770 769 768 767 765 764 762 761 759 758 756 755 756 756 754 752 750 750 748 746 745 743 743 744 745 745 744 742 742 742 742 742 742 742 741 740 740 740 742 745 747 748 749 751 752 753 753 754 755 756 758 760 762 764 766 768 769 770 772 773 774 776 777 779 780 781
793 792 791 790 788 788 788 788 787 787 786 785 784 782 781 780 778 777 775 774 773 772 771 770 769 768 767 766 765 764 762 761 760 760 759 757 755 754 754 753 752 750 749 749 749 750 750 749 748 747 747 748 748 748 748 748 747 747 747 748 750 752 754 755 756 757 757 759 760 761 762 764 766 768 770 771 772 774 775 776 777 778 779 780 781 783 784
793 793 792 791 790 789 788 788 788 787 786 785 784 783 781 780 779 779 778 777 776 775 774 773 772 771 770 769 768 767 766 765 764 763 762 761 760 759 758 757 756 755 755 754 754 754 754 753 753 753 752 752 753 754 755 756 755 754 754 754 755 757 759 760 761 761 762 764 766 767 768 770 772 774 775 776 777 778 779 780 781 782 782 783 784 785 786
793 793 792 791 791 790 789 788 788 787 787 786 785 783 782 781 780 780 779 779 778 778 777 777 776 775 773 772 771 769 769 768 768 767 767 765 764 763 763 762 762 761 761 760 760 760 760 759 759 759 759 759 760 761 762 763 763 762 761 762 763 764 765 766 767 767 768 770 771 772 774 775 777 779 780 781 781 782 783 784 784 784 785 785 786 787 788